Wenatchee, WA
on Monday, December 24, 2012

Monday
Previous Day Next Day
Daily Summary
 ActualAverageRecord
Temperature
Mean Temperature °F 25°F  
Max Temperature 36°F 30°F 47°F (1961)
Min Temperature 21°F 19°F -1°F (1983)
Degree Days
Heating Degree Days 36 40  
Month to date heating degree days 748 937  
Since 1 July heating degree days 1907 2819  
Cooling Degree Days 0 0  
Month to date cooling degree days 0 0  
Year to date cooling degree days 888 249  
Moisture
Dew Point 26°F   
Average Humidity 91    
Maximum Humidity 100    
Minimum Humidity 82    
Precipitation
Precipitation 0.00 in 0.08 in 0.44 in (1988)
Month to date precipitation 1.58 1.98  
Year to date precipitation 9.09 16.53  
Snow
Snow 0.00 in 0.60 in in ()
Month to date snowfall 12.5  
Since 1 July snowfall 20.4  
Snow Depth in   
Wind
Wind Speed 4 mph   
Max Wind Speed 13 mph   
Max Gust Speed 14 mph   
Visibility 4 miles   
Events Fog   

Key: T is trace of precipitation, MM is missing value
Source: NWS Daily Summary
Time(PST)TemperatureDew PointHumidity Pressure Visibility Wind DirectionWind SpeedGust SpeedPrecipitationEvents Conditions
12:39 AM 30.2°F 30.2°F 100% 29.73 in 2.0 miles West 5.8 mph - N/A   Overcast
12:55 AM 30.9°F 30.0°F 96% 29.77 in 5.0 miles WSW 6.9 mph - N/A   Overcast
1:47 AM 30.2°F 30.2°F 100% 29.75 in 9.0 miles Calm Calm - N/A   Overcast
1:55 AM 30.9°F 30.0°F 96% 29.79 in 8.0 miles Calm Calm - N/A   Overcast
2:55 AM 30.0°F 28.9°F 96% 29.81 in 10.0 miles WSW 5.8 mph - N/A   Overcast
3:55 AM 30.0°F 28.0°F 92% 29.83 in 10.0 miles West 4.6 mph - N/A   Mostly Cloudy
4:43 AM 30.2°F 28.4°F 93% 29.82 in 1.8 miles WSW 3.5 mph - N/A   Overcast
4:50 AM 28.4°F 28.4°F 100% 29.82 in 0.5 miles West 5.8 mph - N/A Fog Light Freezing Fog
4:53 AM 28.4°F 26.6°F 93% 29.82 in 0.2 miles West 4.6 mph - N/A Fog Light Freezing Fog
4:55 AM 28.0°F 27.0°F 96% 29.86 in 0.2 miles West 4.6 mph - N/A Fog Light Freezing Fog
5:01 AM 28.4°F 26.6°F 93% 29.82 in 0.5 miles NNW 3.5 mph - N/A Fog Light Freezing Fog
5:08 AM 30.2°F 26.6°F 86% 29.83 in 0.2 miles Calm Calm - N/A Fog Light Freezing Fog
5:38 AM 30.2°F 28.4°F 93% 29.84 in 1.0 miles Calm Calm - N/A   Overcast
5:52 AM 28.4°F 26.6°F 93% 29.85 in 0.5 miles WNW 3.5 mph - N/A Fog Light Freezing Fog
5:55 AM 28.9°F 27.0°F 92% 29.89 in 0.2 miles West 3.5 mph - N/A Fog Light Freezing Fog
6:55 AM 28.9°F 27.0°F 92% 29.91 in 0.5 miles West 11.5 mph - N/A Fog Light Freezing Fog
7:33 AM 28.4°F 26.6°F 93% 29.89 in 1.0 miles West 9.2 mph - N/A   Overcast
7:38 AM 28.4°F 26.6°F 93% 29.89 in 3.0 miles WNW 9.2 mph - N/A   Overcast
7:55 AM 28.0°F 26.1°F 92% 29.95 in 10.0 miles West 10.4 mph - N/A   Scattered Clouds
8:55 AM 28.0°F 25.0°F 88% 29.99 in 10.0 miles WNW 10.4 mph - N/A   Clear
9:55 AM 30.0°F 27.0°F 88% 30.03 in 10.0 miles West 8.1 mph - N/A   Clear
10:55 AM 30.9°F 28.0°F 89% 30.04 in 10.0 miles WNW 6.9 mph - N/A   Clear
11:55 AM 32.0°F 28.9°F 88% 30.06 in 10.0 miles Calm Calm - N/A   Clear
12:55 PM 34.0°F 30.0°F 85% 30.07 in 10.0 miles SW 4.6 mph - N/A   Clear
1:55 PM 35.1°F 30.0°F 82% 30.09 in 10.0 miles Calm Calm - N/A   Clear
2:55 PM 33.1°F 28.9°F 85% 30.11 in 10.0 miles Calm Calm - N/A   Clear
3:55 PM 32.0°F 28.0°F 85% 30.12 in 10.0 miles ENE 3.5 mph - N/A   Clear
4:55 PM 28.9°F 26.1°F 89% 30.14 in 9.0 miles Calm Calm - N/A   Clear
5:55 PM 28.9°F 24.1°F 82% 30.16 in 10.0 miles SSE 4.6 mph - N/A   Clear
6:55 PM 28.9°F 26.1°F 89% 30.17 in 10.0 miles Calm Calm - N/A   Clear
7:29 PM 28.4°F 24.8°F 86% 30.12 in 1.5 miles Calm Calm - N/A   Clear
7:31 PM 26.6°F 24.8°F 93% 30.12 in 0.5 miles Calm Calm - N/A Fog Light Freezing Fog
7:34 PM 24.8°F 24.8°F 100% 30.12 in 0.2 miles Calm Calm - N/A Fog Light Freezing Fog
7:55 PM 24.1°F 21.9°F 91% 30.18 in 0.2 miles Calm Calm - N/A Fog Light Freezing Fog
8:55 PM 21.0°F 19.0°F 92% 30.19 in 0.2 miles Calm Calm - N/A Fog Light Freezing Fog
9:14 PM 23.0°F 21.2°F 93% 30.13 in 0.5 miles Calm Calm - N/A Fog Light Freezing Fog
9:22 PM 24.8°F 21.2°F 86% 30.13 in 0.2 miles Calm Calm - N/A Fog Light Freezing Fog
9:55 PM 25.0°F 21.9°F 88% 30.19 in 0.2 miles NNW 3.5 mph - N/A Fog Light Freezing Fog
10:55 PM 26.1°F 23.0°F 88% 30.19 in 0.2 miles North 4.6 mph - N/A Fog Light Freezing Fog
11:55 PM 28.0°F 25.0°F 88% 30.18 in 0.2 miles Calm Calm - N/A Fog Light Freezing Fog
Moon Phase
Dec. 24 Dec. 28 Jan. 04 Jan. 11 Jan. 18
Sunrise:07:46 AM (PST) Moon Rise:01:50 PM (PST)12/24
Sunset:04:14 PM (PST) Moon Set:04:24 AM (PST)12/24

Copyright © 2014 The Weather Underground, Inc.